TimeMDT,TemperatureF,Dew PointF,Humidity,Sea Level PressureIn,VisibilityMPH,Wind Direction,Wind SpeedMPH,Gust SpeedMPH,PrecipitationIn,Events,Conditions,WindDirDegrees,DateUTC
12:15 AM,37.4,19.4,48,30.41,10.0,SW,10.4,18.4,N/A,,Clear,230,2013-09-29 06:15:00
12:34 AM,37.4,19.4,48,30.40,10.0,SW,11.5,21.9,N/A,,Clear,220,2013-09-29 06:34:00
12:53 AM,37.4,19.4,48,30.39,10.0,SW,11.5,20.7,N/A,,Clear,230,2013-09-29 06:53:00
1:14 AM,37.4,19.4,48,30.39,10.0,SW,10.4,19.6,N/A,,Clear,230,2013-09-29 07:14:00
1:33 AM,35.6,17.6,48,30.38,10.0,SW,10.4,18.4,N/A,,Clear,230,2013-09-29 07:33:00
1:54 AM,35.6,19.4,52,30.39,10.0,SW,10.4,18.4,N/A,,Clear,230,2013-09-29 07:54:00
2:14 AM,35.6,19.4,52,30.38,10.0,SW,8.1,17.3,N/A,,Clear,230,2013-09-29 08:14:00
2:33 AM,33.8,19.4,56,30.37,10.0,SW,10.4,21.9,N/A,,Clear,230,2013-09-29 08:33:00
2:54 AM,33.8,19.4,56,30.37,10.0,SW,11.5,20.7,N/A,,Clear,220,2013-09-29 08:54:00
3:15 AM,33.8,19.4,56,30.36,10.0,WSW,10.4,21.9,N/A,,Clear,240,2013-09-29 09:15:00
3:35 AM,33.8,21.2,60,30.36,10.0,WSW,10.4,21.9,N/A,,Clear,240,2013-09-29 09:35:00
3:54 AM,33.8,21.2,60,30.35,10.0,SW,13.8,20.7,N/A,,Clear,230,2013-09-29 09:54:00
4:14 AM,33.8,21.2,60,30.34,10.0,SW,12.7,21.9,N/A,,Clear,230,2013-09-29 10:14:00
4:35 AM,33.8,21.2,60,30.34,10.0,SW,12.7,21.9,N/A,,Clear,230,2013-09-29 10:35:00
4:55 AM,33.8,19.4,56,30.33,10.0,SW,13.8,23.0,N/A,,Clear,230,2013-09-29 10:55:00
5:15 AM,33.8,21.2,60,30.33,10.0,SW,11.5,19.6,N/A,,Clear,230,2013-09-29 11:15:00
5:35 AM,33.8,21.2,60,30.33,10.0,SW,11.5,24.2,N/A,,Clear,230,2013-09-29 11:35:00
5:53 AM,33.8,21.2,60,30.33,10.0,WSW,12.7,23.0,N/A,,Clear,240,2013-09-29 11:53:00
6:14 AM,33.8,19.4,56,30.33,10.0,SW,12.7,24.2,N/A,,Clear,220,2013-09-29 12:14:00
6:34 AM,33.8,19.4,56,30.33,10.0,SW,15.0,23.0,N/A,,Clear,230,2013-09-29 12:34:00
6:55 AM,33.8,19.4,56,30.34,10.0,WSW,11.5,25.3,N/A,,Clear,240,2013-09-29 12:55:00
7:14 AM,33.8,19.4,56,30.33,10.0,SW,12.7,27.6,N/A,,Clear,220,2013-09-29 13:14:00
7:35 AM,33.8,19.4,56,30.34,10.0,WSW,10.4,21.9,N/A,,Clear,250,2013-09-29 13:35:00
7:52 AM,33.8,19.4,56,30.34,10.0,SW,16.1,25.3,N/A,,Clear,230,2013-09-29 13:52:00
8:14 AM,35.6,19.4,52,30.33,10.0,SW,15.0,27.6,N/A,,Clear,230,2013-09-29 14:14:00
8:33 AM,37.4,19.4,48,30.34,10.0,SW,12.7,25.3,N/A,,Clear,230,2013-09-29 14:33:00
8:54 AM,39.2,17.6,42,30.36,10.0,SW,11.5,25.3,N/A,,Clear,230,2013-09-29 14:54:00
9:14 AM,39.2,17.6,42,30.37,10.0,WSW,9.2,19.6,N/A,,Clear,250,2013-09-29 15:14:00
9:34 AM,41.0,17.6,39,30.36,10.0,WSW,15.0,23.0,N/A,,Clear,240,2013-09-29 15:34:00
9:54 AM,42.8,17.6,36,30.38,10.0,SW,16.1,25.3,N/A,,Clear,220,2013-09-29 15:54:00
10:15 AM,44.6,17.6,34,30.38,10.0,SW,16.1,27.6,N/A,,Clear,220,2013-09-29 16:15:00
10:34 AM,44.6,17.6,34,30.37,10.0,SW,15.0,31.1,N/A,,Clear,220,2013-09-29 16:34:00
10:53 AM,46.4,17.6,32,30.38,10.0,SW,15.0,27.6,N/A,,Clear,220,2013-09-29 16:53:00
11:14 AM,48.2,17.6,30,30.37,10.0,SW,15.0,29.9,N/A,,Clear,230,2013-09-29 17:14:00
11:33 AM,48.2,14.0,25,30.37,10.0,SW,15.0,27.6,N/A,,Clear,230,2013-09-29 17:33:00
11:54 AM,50.0,15.8,26,30.37,10.0,SW,17.3,27.6,N/A,,Clear,220,2013-09-29 17:54:00
12:14 PM,51.8,17.6,26,30.37,10.0,SW,18.4,33.4,N/A,,Clear,220,2013-09-29 18:14:00
12:33 PM,51.8,15.8,24,30.36,10.0,SW,15.0,26.5,N/A,,Clear,230,2013-09-29 18:33:00
12:55 PM,53.6,17.6,24,30.35,10.0,SW,18.4,31.1,N/A,,Clear,220,2013-09-29 18:55:00
1:14 PM,53.6,17.6,24,30.35,10.0,SW,16.1,28.8,N/A,,Clear,220,2013-09-29 19:14:00
1:34 PM,53.6,14.0,21,30.33,10.0,SW,17.3,32.2,N/A,,Clear,220,2013-09-29 19:34:00
1:54 PM,53.6,15.8,22,30.33,10.0,SW,13.8,27.6,N/A,,Clear,220,2013-09-29 19:54:00
2:14 PM,55.4,15.8,21,30.32,10.0,WSW,12.7,23.0,N/A,,Clear,240,2013-09-29 20:14:00
2:35 PM,55.4,17.6,23,30.31,10.0,SW,17.3,29.9,N/A,,Clear,230,2013-09-29 20:35:00
2:54 PM,55.4,15.8,21,30.32,10.0,SW,16.1,28.8,N/A,,Clear,220,2013-09-29 20:54:00
3:14 PM,55.4,17.6,23,30.31,10.0,SW,17.3,27.6,N/A,,Clear,220,2013-09-29 21:14:00
3:34 PM,55.4,17.6,23,30.31,10.0,SW,9.2,25.3,N/A,,Clear,230,2013-09-29 21:34:00
3:54 PM,55.4,17.6,23,30.30,10.0,SW,13.8,25.3,N/A,,Clear,230,2013-09-29 21:54:00
4:13 PM,55.4,17.6,23,30.29,10.0,SW,16.1,24.2,N/A,,Clear,230,2013-09-29 22:13:00
4:34 PM,55.4,19.4,25,30.30,10.0,SW,15.0,26.5,N/A,,Clear,230,2013-09-29 22:34:00
4:54 PM,55.4,19.4,25,30.30,10.0,SW,17.3,24.2,N/A,,Clear,220,2013-09-29 22:54:00
5:14 PM,53.6,19.4,26,30.30,10.0,SW,12.7,27.6,N/A,,Clear,230,2013-09-29 23:14:00
5:34 PM,53.6,21.2,28,30.29,10.0,SW,17.3,25.3,N/A,,Clear,220,2013-09-29 23:34:00
5:54 PM,51.8,19.4,28,30.27,10.0,SW,19.6,32.2,N/A,,Clear,220,2013-09-29 23:54:00
6:14 PM,51.8,21.2,30,30.29,10.0,WSW,10.4,21.9,N/A,,Clear,240,2013-09-30 00:14:00
6:33 PM,50.0,19.4,30,30.30,10.0,SW,10.4,19.6,N/A,,Clear,230,2013-09-30 00:33:00
6:54 PM,48.2,19.4,32,30.30,10.0,SW,5.8,-,N/A,,Clear,230,2013-09-30 00:54:00
7:14 PM,46.4,19.4,34,30.30,10.0,SW,13.8,24.2,N/A,,Clear,230,2013-09-30 01:14:00
7:33 PM,46.4,19.4,34,30.30,10.0,SW,6.9,23.0,N/A,,Clear,230,2013-09-30 01:33:00
7:54 PM,46.4,19.4,34,30.31,10.0,WSW,11.5,19.6,N/A,,Clear,240,2013-09-30 01:54:00
8:13 PM,46.4,19.4,34,30.30,10.0,SW,16.1,23.0,N/A,,Clear,220,2013-09-30 02:13:00
8:34 PM,44.6,21.2,39,30.31,10.0,WSW,10.4,18.4,N/A,,Clear,240,2013-09-30 02:34:00
8:54 PM,44.6,21.2,39,30.31,10.0,WSW,8.1,-,N/A,,Clear,240,2013-09-30 02:54:00
9:14 PM,44.6,21.2,39,30.31,10.0,WSW,9.2,-,N/A,,Clear,240,2013-09-30 03:14:00
9:34 PM,44.6,21.2,39,30.31,10.0,SW,6.9,-,N/A,,Clear,230,2013-09-30 03:34:00
9:54 PM,44.6,23.0,43,30.28,10.0,SW,16.1,26.5,N/A,,Clear,230,2013-09-30 03:54:00
10:14 PM,44.6,23.0,43,30.28,10.0,WSW,13.8,23.0,N/A,,Clear,240,2013-09-30 04:14:00
10:34 PM,44.6,23.0,43,30.27,10.0,SW,15.0,28.8,N/A,,Clear,230,2013-09-30 04:34:00
10:54 PM,44.6,23.0,43,30.29,10.0,WSW,10.4,29.9,N/A,,Clear,240,2013-09-30 04:54:00
11:13 PM,44.6,23.0,43,30.28,10.0,WSW,15.0,26.5,N/A,,Clear,240,2013-09-30 05:13:00
11:34 PM,44.6,23.0,43,30.27,10.0,SW,18.4,27.6,N/A,,Clear,230,2013-09-30 05:34:00
11:54 PM,44.6,23.0,43,30.25,10.0,SW,18.4,33.4,N/A,,Clear,230,2013-09-30 05:54:00